| time (UTC) | temp C | wind direction | speed KPH | gust KPH | rain 1hr cm | rain 24hr cm | rain mn cm | humidity % | barometer mb |
| 20260504050017 | 16 | 23 | 3.2 | 6.4 | 0.00 | 0.00 | 0.00 | 24 | 1008.9 |
| 20260504043017 | 16 | 90 | 3.2 | 6.4 | 0.00 | 0.00 | 0.00 | 24 | 1008.5 |
| 20260504040057 | 17 | 90 | 3.2 | 9.7 | 0.00 | 0.00 | 0.00 | 23 | 1008.4 |
| 20260504033016 | 18 | 90 | 3.2 | 9.7 | 0.00 | 0.00 | 0.00 | 23 | 1008.0 |
| 20260504030017 | 18 | 68 | 3.2 | 9.7 | 0.00 | 0.00 | 0.00 | 21 | 1007.5 |
| 20260504023017 | 19 | 68 | 1.6 | 11.3 | 0.00 | 0.00 | 0.00 | 21 | 1007.4 |
| 20260504020016 | 20 | 23 | 3.2 | 6.4 | 0.00 | 0.00 | 0.00 | 20 | 1007.5 |
| 20260504013016 | 21 | 0.0 | 4.8 | 0.00 | 0.00 | 0.00 | 21 | 1008.1 | |
| 20260504010016 | 22 | 0.0 | 4.8 | 0.00 | 0.00 | 0.00 | 16 | 1008.3 | |
| 20260504003021 | 22 | 0.0 | 6.4 | 0.00 | 0.00 | 0.00 | 15 | 1008.8 | |
| 20260504000016 | 22 | 0.0 | 3.2 | 0.00 | 0.00 | 0.00 | 17 | 1009.5 | |
| 20260503233016 | 22 | 203 | 1.6 | 9.7 | 0.00 | 0.00 | 0.00 | 14 | 1009.5 |
| 20260503230016 | 22 | 203 | 1.6 | 8.0 | 0.00 | 0.00 | 0.00 | 15 | 1009.9 |
| 20260503223016 | 23 | 23 | 3.2 | 12.9 | 0.00 | 0.00 | 0.00 | 14 | 1010.5 |
| 20260503220056 | 23 | 23 | 1.6 | 14.5 | 0.00 | 0.00 | 0.00 | 13 | 1011.4 |
| 20260503213056 | 23 | 180 | 1.6 | 11.3 | 0.00 | 0.00 | 0.00 | 14 | 1012.1 |
| 20260503210056 | 22 | 180 | 4.8 | 14.5 | 0.00 | 0.00 | 0.00 | 13 | 1012.8 |
| 20260503203016 | 22 | 180 | 4.8 | 14.5 | 0.00 | 0.00 | 0.00 | 17 | 1013.3 |
| 20260503200056 | 22 | 180 | 4.8 | 16.1 | 0.00 | 0.00 | 0.00 | 18 | 1013.7 |
| 20260503193056 | 21 | 180 | 3.2 | 14.5 | 0.00 | 0.00 | 0.00 | 19 | 1013.8 |
| 20260503190015 | 21 | 180 | 4.8 | 17.7 | 0.00 | 0.00 | 0.00 | 19 | 1014.7 |
| 20260503183015 | 20 | 180 | 4.8 | 14.5 | 0.00 | 0.00 | 0.00 | 21 | 1015.0 |
| 20260503180015 | 21 | 203 | 1.6 | 11.3 | 0.00 | 0.00 | 0.00 | 27 | 1015.4 |
| 20260503173018 | 20 | 0.0 | 6.4 | 0.00 | 0.00 | 0.00 | 29 | 1016.1 | |
| 20260503140158 | 10 | 68 | 1.6 | 4.8 | 0.00 | 0.00 | 0.00 | 49 | 1015.9 |